Regional Weather Roundup
Issued by NWS Newport/Morehead, NC

Current Version | Previous Version | Graphics & Text | Print | Product List | Glossary On
Versions: 1 2 3 4 5 6 7 8 9 10 11 12 13 14 15 16 17 18 19 20 21 22 23 24 25 26 27 28 29 30 31 32 33 34 35 36 37 38 39 40 41 42 43 44 45 46 47 48 49 50
000 ASUS42 KMHX 252122 RWRMHX WEATHER ROUNDUP FOR EASTERN NORTH CAROLINA NATIONAL WEATHER SERVICE NEWPORT/MOREHEAD CITY NC 400 PM EST THU DEC 25 2014 NOTE: "FAIR" INDICATES FEW OR NO CLOUDS BELOW 12,000 FEET WITH NO SIGNIFICANT WEATHER AND/OR OBSTRUCTIONS TO VISIBILITY NCZ015>017-031-032-045>047-102-103-252200- NORTH COAST CITY SKY/WX TMP DP RH WIND PRES REMARKS EDENTON CLEAR 56 38 50 NW9 30.09R ELIZABETH CITY CLEAR 59 36 42 NW13 30.08R KITTY HAWK CLEAR 54 43 65 W3 30.07R MANTEO CLEAR 55 41 58 NW8 30.08R $$ NCZ045>047-081-094-103-104-252200- CENTRAL COAST CITY SKY/WX TMP DP RH WIND PRES REMARKS FRISCO CLEAR 56 44 64 VRB5 30.08R SWANQUARTER N/A 59 N/A N/A NW8G14 30.06R $$ NCZ095-097-098-100-101-252200- SOUTHERN COAST CITY SKY/WX TMP DP RH WIND PRES REMARKS BEAUFORT CLEAR 59 43 55 W12 30.10R CEDAR ISLAND N/A 57 N/A N/A W3 30.12S JACKSONVILLE SUNNY 59 38 45 NW12 30.09R PINEY ISLAND CLEAR 61 43 51 W7 30.09R WILMINGTON SUNNY 61 43 51 W7 30.10R $$ NCZ011>013-027>030-043-044-078>080-089-090>093-098-252200- COASTAL PLAIN CITY SKY/WX TMP DP RH WIND PRES REMARKS AHOSKIE CLEAR 54 33 45 CALM 30.10R CLINTON SUNNY 59 40 47 NW5 30.11R ELIZABETHTOWN SUNNY 60 40 47 W6 30.11R GOLDSBORO SUNNY 59 40 47 NW9 30.08R GREENVILLE CLEAR 57 34 41 NW8 30.12R HAVELOCK CLEAR 61 37 41 NW12 30.10R KENANSVILLE SUNNY 59 36 43 NW7 30.11R KINSTON SUNNY 59 36 41 NW8 30.09R NEW BERN CLEAR 61 37 41 NW9 30.10R RICHLANDS SUNNY 57 37 47 NW5 30.10R ROCKY MOUNT CLEAR 57 34 41 W8 30.10R WASHINGTON CLEAR 56 36 46 NW7 30.10R WHITEVILLE SUNNY 59 40 49 CALM 30.11S $$ AMZ130-135-150-152-154-156-158-170-250-252-270-ANZ085-086-088-633-658-670-252200- MARINE OBSERVATIONS STATION/POSITION TIME TEMP WIND PRES WAVE SWELL AIR SEA DIR/SP/G HT/PER HT/PER (UTC) (F) (DEG/KT/KT) (MB) (FT/S) (FT/S) CHESAPEAKE LIGHT 2100 53 310/ 12/ 13 1018.7 64 E VA BEACH 2100 53 53 320/ 6/ 8 1017.6 5/ 9 5/ 9 DUCK 2100 56 51 300/ 11/ 13 1017.4 2 E DUCK 2100 51 N/A 2/ 9 10 NE DUCK 2000 51 N/A 3/ 9 2/11 OREGON INLET 2100 55 55 300/ 7/ 11 1018.6 13E OREGON INLT 2100 51 N/A 4/ 8 2/11 HATTERAS CG 2100 55 58 350/ 5/ 7 1019.1 DIAMOND BUOY 2100 58 1018.5 6/ 9 17 S OCRACOKE NOT AVBL CAPE LOOKOUT 2100 57 270/ 7/ 8 1019.1 BEAUFORT LAB 2100 59 55 300/ 6/ 8 1018.1 30 SE NEW RIVER 2100 57 60 270/ 12/ 16 1019.5 6/ 8 5/ 8 5 SE WRIGHTSVLE NOT AVBL 225 S CAPE HAT 2000 71 75 290/ 16/ 19 1019.1 9/ 7 41 SE CHARLESTON 2100 56 71 300/ 12/ 14 1020.4 4/ 6 3/ 6 $$

USA.gov is the U.S. government's official web portal to all federal, state and local government web resources and services.